Location: Almena City Lake
(39.8850°N, 99.6804°W)
Time: 04:04:20
(UTC+00:00)

CZ-4B R/B - Pass Details

Date: 18 February 2020
Orbit: 486 x 652 km, 97.9° (Epoch: 02 April)

Event Time Altitude Azimuth Distance (km) Brightness Sun altitude
Rises 11:40:03 0° 8° (N) 2,624 6.4 -21.4°
Reaches altitude 10° 11:42:12 10° 4° (N) 1,715 5.4 -21.0°
Enters shadow 11:44:51 42° 341° (NNW) 723 3.2 -20.5°
